STARLINK-33891, 63827

Orbit data source: Space-Track

STARLINK-33891, 63827 is a payload satellite owned by SpaceX/Seattle (US) in LEO that was launched on Sun, 04 May 2025 UTC via an FALCON 9 launch vehicle from the Air Force Eastern Test Range (AFETR). Payload-class satellites include a variety of spacecraft equipped with specific instruments for various scientific and technological missions. These include communications satellites like Starlink; space stations such as the ISS; scientific satellites like the Hubble; Earth observation satellites from companies like Planet Labs, Umbra, and HawkEye 360; GPS; miniature CubeSats for education and research; and military/defense satellites.

Loading next visibility...
Identifier
63827, 2025-092Z
Orbit
LEO
Country
Flag of USUS
Related business
Manufacturer
SpaceX/Seattle
Mission
Operational Commercial Communications
Bus & Motor
STARLINK V2MO, Unknown motor
Mass
575 kg wet, ~530 kg dry
Launch date (UTC)
2025-05-04 (8 months ago)
Launch vehicle
FALCON 9
Launch site
Air Force Eastern Test Range (AFETR)
Object type
Payload
Rocket body
Debris
Shape & HBR
Box + 2 Pan, 17.7 m
Radar Cross Section
36.964 m², Large (>1 m²)

Expand to show TLE details & history
Last TLE update: 11 hours ago

TLE from 11 hours ago
0 STARLINK-33891
1 63827U 25092Z   25353.15642785  .00032449  00000-0  11828-2 0  9994
2 63827  43.0018 267.7397 0000910 292.5653  67.5103 15.27600053 36232
Epoch: 2025-12-19T03:45Z
TLE epoch observation values (Epoch: 2025-12-19T03:45:15.366Z)
Latitude
0.00004°
Longitude
123.42409°
Altitude
482.526 km
Speed
7.626 km/s
True Right ascension
17h 50m 57s
True Declination
0° 00' 00"
Sunlit
Object was in daylight at epoch
Visualization orbit readout
Latitude
Unknown
Longitude
Unknown
Altitude
Unknown
Speed
Unknown
Apparent Right ascension
Unknown
Apparent Declination
Unknown
Sunlit
N/A
Visualization observer readout
Local Sidereal Time
13:25:36
Azimuth
Unknown
Elevation
Unknown
Doppler factor
Unknown
Orbital elements
Apogee altitude
485.558 km
Perigee altitude
484.309 km
Semi-major axis
6,863.071 km
Eccentricity
0.00009
Inclination
43.0018°
RAAN
267.7397°
Arg. of periapsis
292.5653°
True anomaly
67.51994°
Mean anomaly
67.5103°
Eccentric anomaly
67.51512°
Mean motion
3.81738 °/min
Orbital period
94.31 mins
BSTAR
0.0011828
Loading maneuver chart data...
Computing Atmospheric mass density...
Loading historical data...
Loading historical data...
Loading historical data...
Loading historical data...
Loading historical data...
Loading historical data...
Loading historical data...

Documentation

Showing up to 5 results
|